Location: Montr�al
(45.5000°N, 73.5830°W)
Time: 19:30:17
(UTC-04:00)

ISS - All Passes

Search period start: 16 September 2014 00:00
Search period end: 26 September 2014 00:00
Orbit: 414 x 417 km, 51.6° (Epoch: 16 September)

Date Brightness Start Highest point End Pass type
(mag) Time Alt. Az. Time Alt. Az. Time Alt. Az.
16 Sep - 04:54:01 10° SW 04:57:19 64° SSE 05:00:38 10° ENE visible
16 Sep - 06:31:08 10° W 06:34:13 34° NNW 06:37:19 10° NE daylight
16 Sep - 08:08:34 10° NW 08:11:32 28° N 08:14:29 10° ENE daylight
16 Sep - 09:45:19 10° WNW 09:48:39 69° NNE 09:51:58 10° ESE daylight
16 Sep - 11:22:34 10° W 11:25:05 20° SW 11:27:37 10° S daylight
17 Sep - 04:05:33 10° SSW 04:08:41 39° SE 04:11:50 10° ENE visible
17 Sep - 05:42:12 10° W 05:45:24 43° NNW 05:48:37 10° NE visible
17 Sep - 07:19:44 10° WNW 07:22:39 27° N 07:25:34 10° ENE daylight
17 Sep - 08:56:38 10° NW 08:59:53 48° NNE 09:03:07 10° E daylight
17 Sep - 10:33:30 10° WNW 10:36:31 32° SW 10:39:32 10° SSE daylight
18 Sep - 03:17:19 10° SSW 03:20:04 24° SE 03:22:50 10° E visible
18 Sep - 04:53:17 10° WSW 04:56:35 59° NNW 04:59:54 10° ENE visible
18 Sep - 06:30:49 10° WNW 06:33:45 28° N 06:36:41 10° ENE daylight
18 Sep - 08:07:54 10° NW 08:11:02 37° NNE 08:14:10 10° E daylight
18 Sep - 09:44:36 10° WNW 09:47:52 53° SW 09:51:07 10° SE daylight
19 Sep - 02:29:30 10° S 02:31:29 15° SE 02:33:28 10° E night (unlit)
19 Sep - 04:04:27 10° WSW 04:07:47 88° NNW 04:11:08 10° ENE visible
19 Sep - 05:41:48 10° WNW 05:44:49 30° N 05:47:49 10° NE visible
19 Sep - 07:19:06 10° NW 07:22:08 31° N 07:25:09 10° ENE daylight
19 Sep - 08:55:46 10° WNW 08:59:07 86° SSW 09:02:27 10° ESE daylight
19 Sep - 10:33:38 10° WSW 10:35:23 14° SW 10:37:07 10° SSW daylight
20 Sep - 03:15:43 10° SW 03:19:00 59° SSE 03:22:18 10° ENE visible
20 Sep - 04:52:45 10° W 04:55:52 35° NNW 04:58:59 10° NE visible
20 Sep - 06:30:13 10° WNW 06:33:09 28° N 06:36:06 10° ENE daylight
20 Sep - 08:06:58 10° WNW 08:10:17 64° NNE 08:13:36 10° ESE daylight
20 Sep - 09:44:06 10° W 09:46:46 22° SW 09:49:24 10° S daylight
21 Sep - 02:27:10 10° SSW 02:30:14 35° SE 02:33:20 10° ENE visible
21 Sep - 04:03:41 10° W 04:06:55 45° NNW 04:10:09 10° NE visible
21 Sep - 05:41:14 10° WNW 05:44:08 27° N 05:47:03 10° ENE visible
21 Sep - 07:18:08 10° NW 07:21:22 45° NNE 07:24:36 10° E daylight
21 Sep - 08:54:57 10° WNW 08:58:03 36° SW 09:01:07 10° SSE daylight
22 Sep - 01:38:51 10° S 01:41:30 22° SE 01:44:09 10° E night (unlit)
22 Sep - 03:14:39 10° WSW 03:17:58 64° NNW 03:21:17 10° ENE visible
22 Sep - 04:52:09 10° WNW 04:55:05 28° N 04:58:02 10° ENE visible
22 Sep - 06:29:16 10° NW 06:32:23 35° NNE 06:35:29 10° E daylight
22 Sep - 08:05:57 10° WNW 08:09:14 59° SSW 08:12:31 10° SE daylight
23 Sep - 00:51:03 10° SSE 00:52:47 14° SE 00:54:31 10° ESE night (unlit)
23 Sep - 02:25:42 10° WSW 02:29:02 85° SSE 02:32:23 10° ENE night (unlit)
23 Sep - 04:02:59 10° WNW 04:06:01 31° N 04:09:03 10° NE visible
23 Sep - 05:40:19 10° NW 05:43:19 30° N 05:46:20 10° ENE visible
23 Sep - 07:17:00 10° WNW 07:20:21 87° NNE 07:23:40 10° ESE daylight
23 Sep - 08:54:38 10° W 08:56:38 15° SW 08:58:38 10° S daylight
24 Sep - 01:36:52 10° SW 01:40:07 53° SE 01:43:23 10° ENE night (unlit)
24 Sep - 03:13:48 10° W 03:16:56 37° NNW 03:20:05 10° NE visible
24 Sep - 04:51:17 10° WNW 04:54:13 28° N 04:57:09 10° ENE visible
24 Sep - 06:28:03 10° WNW 06:31:22 59° NNE 06:34:39 10° ESE daylight
24 Sep - 08:05:06 10° W 08:07:52 24° SW 08:10:37 10° SSE daylight
25 Sep - 00:48:14 10° SSW 00:51:14 32° SE 00:54:15 10° ENE night (unlit)
25 Sep - 02:24:36 10° W 02:27:51 48° NNW 02:31:07 10° NE night (unlit)
25 Sep - 04:02:08 10° WNW 04:05:03 27° N 04:07:58 10° ENE visible
25 Sep - 05:39:05 10° NW 05:42:18 43° NNE 05:45:30 10° E visible
25 Sep - 07:15:51 10° WNW 07:19:00 40° SW 07:22:08 10° SSE daylight
25 Sep - 23:59:52 10° S 00:00:15 12° S 00:00:00 11° S night (unlit)
